Location: Altoona
(40.5167°N, 78.4000°W)
Time: 18:18:14
(UTC-04:00)

Cosmos 1844 Rocket - Pass Details

Date: 21 August 2017
Orbit: 823 x 846 km, 71.0° (Epoch: 22 September)

Event Time Altitude Azimuth Distance (km) Brightness Sun altitude
Rises 21:18:59 0° 347° (NNW) 3,415 6.5 -14.3°
Reaches altitude 10° 21:22:01 10° 2° (N) 2,476 5.5 -14.8°
Maximum altitude 21:26:23 22° 53° (NE) 1,762 4.2 -15.5°
Enters shadow 21:28:42 18° 85° (E) 1,988 4.2 -15.9°
